loading
|
Showing default

PERUSAT 1, 41770

Orbit data source: Space-Track

PERUSAT 1, 41770 is a payload satellite owned by MOD Peru (PE) in SSO that was launched on Fri, 16 Sep 2016 UTC via a VEGA launch vehicle from the French Guiana (FRGUI). Payloads include a variety of satellites, spacecraft, and rockets equipped with specific instruments for various scientific and technological missions. These include communications satellites like Starlink; space stations such as the ISS; scientific satellites like the Hubble; Earth observation satellites from companies like Planet Labs, Umbra, and HawkEye 360; GPS; miniature CubeSats for education and research; and military/defense satellites.

Loading next visibility...
Next conjunction unknown
Loading greatness...
PERUSAT 1 details
Identifier
41770, 2016-058A
Orbit
SSO
Last TLE update9 hours ago
Origin
Flag of PEMOD Peru (PE / PER)
ManufacturerAirbus/Toulouse
MissionOperational Defense Imaging
Bus & MotorASTROBUS-S, Unknown motor
Mass430 kg wet, ~400 kg dry
Launch date (UTC)
2016-09-16 (8 years ago)
Launch vehicle
VEGA
Launch site
French Guiana (FRGUI)
Object type
Payload
Rocket body
Debris
Shape & HBRHex Cyl + 3 Pan, 4.5 m
Radar Cross Section3.025 m², Large (>1 m²)

Expand to show TLE details & history

TLE from 9 hours ago
0 PERUSAT 1
1 41770U 16058A   24288.20171246  .00001546  00000-0  34245-3 0  9993
2 41770  98.2164 359.3577 0001225  87.7541 272.3799 14.58531365430032
Epoch: 2024-10-14T04:50Z
Definitive object data (Epoch: 2024-10-14T04:50:27.956Z)
Latitude0.00003°
Longitude-96.49103°
Altitude700.867 km
Speed7.506 km/s
True Right ascension23h 57m 25s
True Declination0° 00' 00"
Sunlit
Object was in full shadow at TLE epoch
Predictive object data (real-time)
Latitude-37.48812°
Longitude77.56472°
Altitude712.746 km
Speed7.498 km/s
Apparent Right ascension15h 26m 36s
Apparent Declination-64° 28' 24"
Sunlit
Object is in daylight
Predictive observer data (real-time)
Local Sidereal Time08:38:04
Azimuth146.395° SSE
Elevation-40.429°
Doppler factor1
Orbital elements
Apogee695.87 km
Perigee694.138 km
Semi-major axis7,073.141 km
Eccentricity0.0001225
Inclination98.2164°
RAAN359.3577°
Arg. of periapsis87.7541°
True anomaly272.36587°
Mean anomaly272.3799°
Eccentric anomaly272.37289°
Mean motion3.64859 °/min
BSTAR0.00034245
Period98.67 mins
No data available
No data available

PERUSAT 1 Visibility forecast

Observer location: 39.9160978°, -105.1181434

Span
Click to sort rows by Start time (UTC) header in descending order
Start Az.
Max El. time (UTC)
Max El. Az.
Max El.
End time (UTC)
End Az.
7 mins2024-10-14 16:57:05.897Z41.196° NE2024-10-14 17:01:05.897Z103.92° ESE23.408°2024-10-14 17:04:05.897Z148.047° SSE
6 mins2024-10-14 18:36:05.897Z335.135° NNW2024-10-14 18:38:05.897Z296.522° NW26.986°2024-10-14 18:42:05.897Z232.216° WSW
6 mins2024-10-15 04:03:05.897Z109.342° ESE2024-10-15 04:05:05.897Z74.277° E24.17°2024-10-15 04:09:05.897Z12.829° NNE
6 mins2024-10-15 05:40:05.897Z212.723° SW2024-10-15 05:43:05.897Z267.909° W26.501°2024-10-15 05:46:05.897Z317.789° NNW